User: anonymous   Login
Location: Unspecified
(0.0000°N, 0.0000°E)
Time: 23:22:47
(UTC+00:00)
Language:

USA 103 - Orbit

View from above orbital plane
View from above orbital plane
View from above satellite
View from above satellite

Ground track
Ground track

The orbit data is extracted from the following two-line orbital elements,

1 23097U 94026A   17327.73160635 0.00000000  00000-0  00000-0 0    06
2 23097  64.0177 124.0718 6551230 263.2658  23.8580  2.00608000    07
Epoch (UTC): 23 November 2017 17:33:30
Eccentricity: 0.6551230
inclination: 64.0177°
perigee height: 2780 km
apogee height: 37575 km
right ascension of ascending node: 124.0718°
argument of perigee: 263.2658°
revolutions per day: 2.00608000
mean anomaly at epoch: 23.8580°
orbit number at epoch: 0

The dashed part of the orbit path shows where the satellite is in the earth's shadow,  

DLR